This is the latest recevied weather packets stored in our database for station/object OE6ACM-14. If no packets are shown the sender has not sent any weather packets the latest 10 day(s).
| Time | Temp. | Humidity | Pressure | Rain* | Wind** | Luminosity | Snow |
|---|---|---|---|---|---|---|---|
| 1777379267 | 23.33° C | 31% | 927.5 hPa | - | - | - | - |
| 1777378967 | 23.89° C | 30% | 927.5 hPa | - | - | - | - |
| 1777378671 | 23.89° C | 28% | 927.5 hPa | - | - | - | - |
| 1777378367 | 24.44° C | 30% | 927.5 hPa | - | - | - | - |
| 1777378070 | 23.89° C | 30% | 927.6 hPa | - | - | - | - |
| 1777377767 | 22.78° C | 30% | 927.6 hPa | - | - | - | - |
| 1777377469 | 22.78° C | 31% | 927.7 hPa | - | - | - | - |
| 1777377169 | 23.33° C | 29% | 927.6 hPa | - | - | - | - |
| 1777376870 | 23.89° C | 29% | 927.7 hPa | - | - | - | - |
| 1777376571 | 23.89° C | 28% | 927.7 hPa | - | - | - | - |
| 1777376267 | 23.89° C | 30% | 927.7 hPa | - | - | - | - |
| 1777375970 | 24.44° C | 29% | 927.8 hPa | - | - | - | - |
| 1777375667 | 23.33° C | 30% | 927.9 hPa | - | - | - | - |
| 1777375367 | 23.89° C | 29% | 927.9 hPa | - | - | - | - |
| 1777375071 | 23.33° C | 31% | 928 hPa | - | - | - | - |
| 1777374772 | 23.33° C | 31% | 928 hPa | - | - | - | - |
| 1777374467 | 23.33° C | 29% | 928.1 hPa | - | - | - | - |
| 1777374167 | 23.33° C | 30% | 928.1 hPa | - | - | - | - |
| 1777373869 | 22.78° C | 32% | 928.1 hPa | - | - | - | - |
| 1777373567 | 22.78° C | 31% | 928.1 hPa | - | - | - | - |
| 1777373272 | 22.22° C | 32% | 928.1 hPa | - | - | - | - |
| 1777372971 | 22.78° C | 32% | 928.2 hPa | - | - | - | - |
| 1777372668 | 22.78° C | 35% | 928.2 hPa | - | - | - | - |
| 1777372368 | 23.33° C | 29% | 928.2 hPa | - | - | - | - |
| 1777372068 | 23.33° C | 29% | 928.2 hPa | - | - | - | - |
* Rain since midnight (hover to see other rain measurements)
** Current wind speed in m/s (hover to see current wind gust speed)